Flag for Germany Weather past 2 weeks in Berlin, Berlin, Germany

37 °F

Passing clouds.

Feels Like: 30 °F
Forecast: 36 / 50 °F
Wind: 10 mph from West

Location: Berlin-Tegel

Current Time: Nov 28, 2015 at 6:20:27 PM

Latest Report: Nov 28, 2015 at 5:50 PM

Visibility: N/A

Pressure: 29.83 "Hg

Humidity: 93%

Dew point: 36 °F

Location of BerlinLocation

Historic Weather in Berlin — Graph


Berlin temperature yesterday

Maximum temperature yesterday: 43 °F (at 1:20 PM)
Minimum temperature yesterday: 30 °F (at 12:50 AM)
Average temperature yesterday: 36 °F

Past Weeks' High & Low Weather Summary

High57 °F (Nov 17, 8:20 PM)100% (Nov 15, 2:20 AM)30.21 "Hg (Nov 15, 2:20 AM)
Low27 °F (Nov 23, 11:20 PM)55% (Nov 19, 12:50 PM)29.33 "Hg (Nov 21, 1:50 PM)
Average43 °F85%29.79 "Hg
* Reported Nov 13 5:20 PM — Nov 28 5:20 PM, Berlin, Weather by CustomWeather, © 2015

Note: Actual official high and low records may vary slightly from our data, if they occured in-between our weather recording intervals... More about our weather records


Berlin weather history for previous 24 hours

Time TempWeatherWind HumidityBarometerVisibility
5:20 PM
Sat, Nov 28
36 °FClear.10 mph100%29.83 "Hg10 mi
4:50 PM36 °FClear.9 mph100%29.83 "Hg10 mi
4:20 PM36 °FPassing clouds.9 mph100%29.80 "Hg5 mi
3:50 PM37 °FBroken clouds.9 mph93%29.77 "Hg5 mi
3:20 PM36 °FPartly sunny.8 mph100%29.77 "Hg5 mi
2:50 PM36 °FLight rain. Partly sunny.9 mph93%29.74 "Hg4 mi
2:20 PM34 °FDrizzle. Broken clouds.8 mph100%29.74 "Hg4 mi
1:50 PM34 °FLight rain. Partly sunny.9 mph93%29.71 "Hg4 mi
1:20 PM34 °FSnow. Partly sunny.12 mph93%29.71 "Hg1 mi
12:50 PM34 °FLight snow. Partly sunny.8 mph93%29.71 "Hg2 mi
12:20 PM34 °FSnow. Broken clouds.10 mph93%29.68 "Hg2 mi
11:50 AM34 °FLight snow. Partly sunny.10 mph93%29.68 "Hg2 mi
11:20 AM32 °FLight snow. Partly sunny.8 mph100%29.68 "Hg2 mi
10:50 AM32 °FLight snow. Partly sunny.8 mph93%29.68 "Hg3 mi
10:20 AM32 °FLight snow. Partly sunny.8 mph87%29.68 "HgN/A
9:50 AM32 °FPartly sunny.9 mph80%29.68 "HgN/A
9:20 AM30 °FPartly sunny.9 mph86%29.68 "HgN/A
8:50 AM30 °FSunny.10 mph86%29.71 "Hg10 mi
7:20 AM30 °FClear.10 mph86%29.71 "Hg10 mi
6:50 AM30 °FClear.9 mph86%29.71 "Hg10 mi
6:20 AM30 °FPassing clouds.9 mph86%29.71 "HgN/A
5:50 AM30 °FClear.9 mph86%29.74 "Hg10 mi
5:20 AM30 °FClear.8 mph86%29.74 "Hg10 mi
4:50 AM30 °FClear.8 mph86%29.74 "Hg10 mi
4:20 AM30 °FClear.9 mph86%29.77 "Hg10 mi
3:50 AM30 °FClear.9 mph86%29.77 "Hg10 mi
3:20 AM32 °FClear.10 mph80%29.80 "Hg10 mi
2:50 AM32 °FClear.9 mph87%29.80 "Hg10 mi
2:20 AM32 °FPassing clouds.8 mph87%29.83 "HgN/A
12:50 AM34 °FClear.8 mph81%29.86 "Hg10 mi
11:50 PM
Fri, Nov 27
32 °FChilly.7 mph87%29.89 "HgN/A
11:20 PM34 °FPassing clouds.8 mph87%29.89 "HgN/A
10:50 PM36 °FClear.9 mph81%29.92 "Hg10 mi
9:50 PM36 °FClear.8 mph87%29.92 "Hg10 mi
9:20 PM36 °FClear.7 mph87%29.95 "Hg10 mi
8:50 PM36 °FClear.7 mph93%29.95 "Hg10 mi
8:20 PM36 °FClear.7 mph93%29.95 "Hg10 mi
7:50 PM36 °FClear.7 mph93%29.98 "Hg10 mi
7:20 PM37 °FClear.7 mph93%29.98 "Hg10 mi
6:20 PM37 °FClear.8 mph87%29.98 "Hg10 mi
Weather by CustomWeather, © 2015

See weather overviewHow to use our weather pages